Location: Harbor Side
(32.6101°N, 117.0814°W)
Time: 07:23:39
(UTC+00:00)

Cosmos 1400 Rocket - Pass Details

Date: 21 April 2021
Orbit: 522 x 566 km, 81.2° (Epoch: 13 May)

Event Time Altitude Azimuth Distance (km) Brightness Sun altitude
Rises 12:34:50 0° 339° (NNW) 2,763 6.4 -8.2°
Reaches altitude 10° 12:37:12 10° 329° (NNW) 1,865 5.4 -7.7°
Maximum altitude 12:40:48 30° 268° (W) 1,027 3.7 -7.0°
Drops below altitude 10° 12:44:24 10° 206° (SSW) 1,853 5.1 -6.3°
Sets 12:46:45 0° 196° (SSW) 2,742 6.0 -5.8°
